STARLINK-2315, 47789

Orbit data source: Space-Track

STARLINK-2315, 47789 is a payload satellite owned by SpaceX/Seattle (US) in LEO that was launched on Thu, 11 Mar 2021 UTC via an FALCON 9 launch vehicle from the Air Force Eastern Test Range (AFETR). Payload-class satellites include a variety of spacecraft equipped with specific instruments for various scientific and technological missions. These include communications satellites like Starlink; space stations such as the ISS; scientific satellites like the Hubble; Earth observation satellites from companies like Planet Labs, Umbra, and HawkEye 360; GPS; miniature CubeSats for education and research; and military/defense satellites.

Loading next visibility...
Identifier
47789, 2021-018C
Orbit
LEO
Country
Flag of USUS
Related business
Manufacturer
SpaceX/Seattle
Mission
Operational Commercial Communications
Bus & Motor
STARLINK, Unknown motor
Mass
260 kg wet, ~248 kg dry
Launch date (UTC)
2021-03-11 (5 years ago)
Launch vehicle
FALCON 9
Launch site
Air Force Eastern Test Range (AFETR)
Object type
Payload
Rocket body
Debris
Shape & HBR
Box + 1 Pan, 10.1 m
Radar Cross Section
13.562 m², Large (>1 m²)

Expand to show TLE details & history
Last TLE update: 13 hours ago

TLE from 13 hours ago
0 STARLINK-2315
1 47789U 21018C   26035.25642233  .00001838  00000-0  14219-3 0  9990
2 47789  53.0563  21.7051 0001318  94.3438 265.7701 15.06407843271847
Epoch: 2026-02-04T06:09Z
TLE epoch observation values (Epoch: 2026-02-04T06:09:14.889Z)
Latitude
-0.00006°
Longitude
154.9674°
Altitude
548.134 km
Speed
7.589 km/s
True Right ascension
01h 26m 49s
True Declination
0° 00' 00"
Sunlit
Object was in daylight at epoch
Visualization orbit readout
Latitude
Unknown
Longitude
Unknown
Altitude
Unknown
Speed
Unknown
Apparent Right ascension
Unknown
Apparent Declination
Unknown
Sunlit
N/A
Visualization observer readout
Local Sidereal Time
21:27:50
Azimuth
Unknown
Elevation
Unknown
Doppler factor
Unknown
Orbital elements
Apogee altitude
548.371 km
Perigee altitude
546.545 km
Semi-major axis
6,925.595 km
Eccentricity
0.00013
Inclination
53.0563°
RAAN
21.7051°
Arg. of periapsis
94.3438°
True anomaly
265.75504°
Mean anomaly
265.7701°
Eccentric anomaly
265.76257°
Mean motion
3.7658 °/min
Orbital period
95.6 mins
BSTAR
0.00014219
Loading maneuver chart data...
Computing Atmospheric mass density...
Loading historical data...
Loading historical data...
Loading historical data...
Loading historical data...
Loading historical data...
Loading historical data...
Loading historical data...

Documentation

Showing up to 5 results
|